Location: Riedlingen
(48.1569°N, 9.4757°E)
Time: 12:58:40
(UTC+01:00)

ISS - Pass Details

Date: 13 January 2018
Orbit: 402 x 407 km, 51.6° (Epoch: 18 January)

Event Time Altitude Azimuth Distance (km) Brightness Sun altitude
Exits shadow 07:06:34 12° 262° (W) 1,343 -1.7 -10.1°
Maximum altitude 07:08:30 19° 221° (SW) 1,051 -1.9 -9.8°
Drops below altitude 10° 07:10:53 10° 175° (S) 1,460 -0.6 -9.5°
Sets 07:13:21 0° 156° (SSE) 2,317 0.8 -9.1°
